Location: Esp�n
(42.4593°N, 0.2047°W)
Time: 22:37:22
(UTC+00:00)

STARLINK-70 - Pass Details

Date: 10 October 2020
Orbit: 441 x 442 km, 53.0° (Epoch: 26 October)

Event Time Altitude Azimuth Distance (km) Brightness Sun altitude
Exits shadow 03:24:32 16° 57° (ENE) 1,259 6.2 -30.6°
Drops below altitude 10° 03:25:17 10° 56° (NE) 1,560 6.8 -30.4°
Sets 03:27:25 0° 55° (NE) 2,433 8.0 -30.1°
